Hourly Data Report for March 18, 2015

All times are specified in Local Standard Time (LST). Add 1 hour to adjust for Daylight Saving Time where and when it is observed.

MIRAMICHI RCS
NEW BRUNSWICK

47°00'34.000" N
65°27'54.000" W
33.00 m
8100989
71744
ACQ

Download Data

Hourly Data (March 2015)
Hourly Data Report for March 18, 2015
TIME Temp Definition
°C
Dew Point Definition
°C
Rel Hum Definition
%
Wind Dir Definition
10's deg

Wind Spd Definition
km/h
Visibility Definition
km
Stn Press Definition
kPa
Hmdx Definition


Wind Chill Definition


Weather Definition


00:00 -5.1 -6.1 93 4 12   98.99   -10 LegendNANA
01:00 -5.2 -6.3 92 4 14   98.94   -11 LegendNANA
02:00 -5.9 -7.0 92 4 12   98.91   -11 LegendNANA
03:00 -6.0 -7.2 91 3 13   98.89   -11 LegendNANA
04:00 -6.1 -7.4 91 2 8   98.87   -10 LegendNANA
05:00 -6.1 -7.5 90 1 11   98.92   -11 LegendNANA
06:00 -6.4 -7.6 91 34 8   98.95   -10 LegendNANA
07:00 -6.1 -7.5 90 34 10   98.96   -11 LegendNANA
08:00 -5.6 -7.3 88 35 10   98.99   -10 LegendNANA
09:00 -5.1 -7.6 83 34 15   99.00   -11 LegendNANA
10:00 -5.6 -8.7 79 32 15   99.01   -11 LegendNANA
11:00 -5.4 -8.5 79 33 14   99.02   -11 LegendNANA
12:00 -5.0 -8.1 79 32 15   98.98   -11 LegendNANA
13:00 -4.6 -7.5 80 31 18   98.95   -11 LegendNANA
14:00 -3.4 -7.7 72 32 17   98.98   -9 LegendNANA
15:00 -4.1 -7.7 76 32 24   99.06   -11 LegendNANA
16:00 -4.9 -7.9 79 32 21   99.14   -12 LegendNANA
17:00 -5.6 -9.0 77 32 21   99.27   -12 LegendNANA
18:00 -6.0 -10.0 73 32 21   99.37   -13 LegendNANA
19:00 -6.8 -11.4 70 32 22   99.48   -14 LegendNANA
20:00 -7.6 -11.6 73 31 22   99.55   -15 LegendNANA
21:00 -7.8 -12.0 72 31 21   99.60   -15 LegendNANA
22:00 -8.0 -12.8 68 31 19   99.69   -15 LegendNANA
23:00 -8.1 -13.1 67 30 20   99.67   -15 LegendNANA

Notes on Data Quality.

Legend

  • E = Estimated
  • M = Missing
  • NA = Not Available
Date modified: